Year,Month,Day,Hour,Minute,Value (Times are PST for temperature in C)
2018,04,24,00,00,8.80
2018,04,24,00,01,8.80
2018,04,24,00,02,8.80
2018,04,24,00,03,8.80
2018,04,24,00,04,8.80
2018,04,24,00,05,8.80
2018,04,24,00,06,8.80
2018,04,24,00,07,8.80
2018,04,24,00,08,8.80
2018,04,24,00,09,8.80
2018,04,24,00,10,8.80
2018,04,24,00,11,8.80
2018,04,24,00,12,8.80
2018,04,24,00,13,8.80
2018,04,24,00,14,8.80
2018,04,24,00,15,8.80
2018,04,24,00,16,8.80
2018,04,24,00,17,8.80
2018,04,24,00,18,8.80
2018,04,24,00,19,8.80
2018,04,24,00,20,8.90
2018,04,24,00,21,8.90
2018,04,24,00,22,8.90
2018,04,24,00,23,8.90
2018,04,24,00,24,8.90
2018,04,24,00,25,8.90
2018,04,24,00,26,8.90
2018,04,24,00,27,8.90
2018,04,24,00,28,8.90
2018,04,24,00,29,8.90
2018,04,24,00,30,8.90
2018,04,24,00,31,8.90
2018,04,24,00,32,9.00
2018,04,24,00,33,9.10
2018,04,24,00,34,9.10
2018,04,24,00,35,9.20
2018,04,24,00,36,9.20
2018,04,24,00,37,9.30
2018,04,24,00,38,9.30
2018,04,24,00,39,9.30
2018,04,24,00,40,9.40
2018,04,24,00,41,9.40
2018,04,24,00,42,9.40
2018,04,24,00,43,9.50
2018,04,24,00,44,9.50
2018,04,24,00,45,9.60
2018,04,24,00,46,9.60
2018,04,24,00,47,9.60
2018,04,24,00,48,9.70
2018,04,24,00,49,9.70
2018,04,24,00,50,9.70
2018,04,24,00,51,9.70
2018,04,24,00,52,9.70
2018,04,24,00,53,9.70
2018,04,24,00,54,9.70
2018,04,24,00,55,9.70
2018,04,24,00,56,9.70
2018,04,24,00,57,9.70
2018,04,24,00,58,9.60
2018,04,24,00,59,9.60
2018,04,24,01,00,9.60
2018,04,24,01,01,9.60
2018,04,24,01,02,9.60
2018,04,24,01,03,9.60
2018,04,24,01,04,9.60
2018,04,24,01,05,9.60
2018,04,24,01,06,9.60
2018,04,24,01,07,9.60
2018,04,24,01,08,9.60
2018,04,24,01,09,9.60
2018,04,24,01,10,9.60
2018,04,24,01,11,9.60
2018,04,24,01,12,9.60
2018,04,24,01,13,9.60
2018,04,24,01,14,9.60
2018,04,24,01,15,9.50
2018,04,24,01,16,9.50
2018,04,24,01,17,9.50
2018,04,24,01,18,9.50
2018,04,24,01,19,9.50
2018,04,24,01,20,9.40
2018,04,24,01,21,9.40
2018,04,24,01,22,9.40
2018,04,24,01,23,9.40
2018,04,24,01,24,9.40
2018,04,24,01,25,9.30
2018,04,24,01,26,9.40
2018,04,24,01,27,9.40
2018,04,24,01,28,9.40
2018,04,24,01,29,9.40
2018,04,24,01,30,9.40
2018,04,24,01,31,9.40
2018,04,24,01,32,9.40
2018,04,24,01,33,9.40
2018,04,24,01,34,9.30
2018,04,24,01,35,9.30
2018,04,24,01,36,9.30
2018,04,24,01,37,9.30
2018,04,24,01,38,9.30
2018,04,24,01,39,9.20
2018,04,24,01,40,9.20
2018,04,24,01,41,9.20
2018,04,24,01,42,9.20
2018,04,24,01,43,9.20
2018,04,24,01,44,9.20
2018,04,24,01,45,9.20
2018,04,24,01,46,9.20
2018,04,24,01,47,9.20
2018,04,24,01,48,9.10
2018,04,24,01,49,9.10
2018,04,24,01,50,9.00
2018,04,24,01,51,9.00
2018,04,24,01,52,8.90
2018,04,24,01,53,8.90
2018,04,24,01,54,8.90
2018,04,24,01,55,8.90
2018,04,24,01,56,8.90
2018,04,24,01,57,8.90
2018,04,24,01,58,9.00
2018,04,24,01,59,9.00
2018,04,24,02,00,9.00
2018,04,24,02,01,9.10
2018,04,24,02,02,9.10
2018,04,24,02,03,9.10
2018,04,24,02,04,9.10
2018,04,24,02,05,9.10
2018,04,24,02,06,9.10
2018,04,24,02,07,9.10
2018,04,24,02,08,9.10
2018,04,24,02,09,9.10
2018,04,24,02,10,9.10
2018,04,24,02,11,9.10
2018,04,24,02,12,9.20
2018,04,24,02,13,9.20
2018,04,24,02,14,9.10
2018,04,24,02,15,9.10
2018,04,24,02,16,9.10
2018,04,24,02,17,9.10
2018,04,24,02,18,9.10
2018,04,24,02,19,9.10
2018,04,24,02,20,9.10
2018,04,24,02,21,9.10
2018,04,24,02,22,9.10
2018,04,24,02,23,9.10
2018,04,24,02,24,9.00
2018,04,24,02,25,9.00
2018,04,24,02,26,9.00
2018,04,24,02,27,8.90
2018,04,24,02,28,8.90
2018,04,24,02,29,8.90
2018,04,24,02,30,8.90
2018,04,24,02,31,8.90
2018,04,24,02,32,9.00
2018,04,24,02,33,9.10
2018,04,24,02,34,9.10
2018,04,24,02,35,9.10
2018,04,24,02,36,9.20
2018,04,24,02,37,9.20
2018,04,24,02,38,9.20
2018,04,24,02,39,9.20
2018,04,24,02,40,9.20
2018,04,24,02,41,9.20
2018,04,24,02,42,9.10
2018,04,24,02,43,9.10
2018,04,24,02,44,9.10
2018,04,24,02,45,9.00
2018,04,24,02,46,9.00
2018,04,24,02,47,8.90
2018,04,24,02,48,8.90
2018,04,24,02,49,8.90
2018,04,24,02,50,8.80
2018,04,24,02,51,8.80
2018,04,24,02,52,8.80
2018,04,24,02,53,8.80
2018,04,24,02,54,8.80
2018,04,24,02,55,8.80
2018,04,24,02,56,8.80
2018,04,24,02,57,8.80
2018,04,24,02,58,8.80
2018,04,24,02,59,8.80
2018,04,24,03,00,8.80
2018,04,24,03,01,8.80
2018,04,24,03,02,8.80
2018,04,24,03,03,8.80
2018,04,24,03,04,8.80
2018,04,24,03,05,8.70
2018,04,24,03,06,8.80
2018,04,24,03,07,8.80
2018,04,24,03,08,8.80
2018,04,24,03,09,8.70
2018,04,24,03,10,8.80
2018,04,24,03,11,8.80
2018,04,24,03,12,8.80
2018,04,24,03,13,8.80
2018,04,24,03,14,8.80
2018,04,24,03,15,8.90
2018,04,24,03,16,8.90
2018,04,24,03,17,8.90
2018,04,24,03,18,8.80
2018,04,24,03,19,8.80
2018,04,24,03,20,8.80
2018,04,24,03,21,8.70
2018,04,24,03,22,8.70
2018,04,24,03,23,8.70
2018,04,24,03,24,8.70
2018,04,24,03,25,8.70
2018,04,24,03,26,8.70
2018,04,24,03,27,8.70
2018,04,24,03,28,8.70
2018,04,24,03,29,8.70
2018,04,24,03,30,8.70
2018,04,24,03,31,8.70
2018,04,24,03,32,8.70
2018,04,24,03,33,8.70
2018,04,24,03,34,8.60
2018,04,24,03,35,8.60
2018,04,24,03,36,8.50
2018,04,24,03,37,8.50
2018,04,24,03,38,8.40
2018,04,24,03,39,8.40
2018,04,24,03,40,8.30
2018,04,24,03,41,8.30
2018,04,24,03,42,8.30
2018,04,24,03,43,8.30
2018,04,24,03,44,8.30
2018,04,24,03,45,8.30
2018,04,24,03,46,8.30
2018,04,24,03,47,8.30
2018,04,24,03,48,8.30
2018,04,24,03,49,8.30
2018,04,24,03,50,8.30
2018,04,24,03,51,8.30
2018,04,24,03,52,8.30
2018,04,24,03,53,8.20
2018,04,24,03,54,8.20
2018,04,24,03,55,8.10
2018,04,24,03,56,8.10
2018,04,24,03,57,8.00
2018,04,24,03,58,7.90
2018,04,24,03,59,7.90
2018,04,24,04,00,7.90
2018,04,24,04,01,7.90
2018,04,24,04,02,7.80
2018,04,24,04,03,7.80
2018,04,24,04,04,7.80
2018,04,24,04,05,7.80
2018,04,24,04,06,7.90
2018,04,24,04,07,7.90
2018,04,24,04,08,7.90
2018,04,24,04,09,7.90
2018,04,24,04,10,7.90
2018,04,24,04,11,7.90
2018,04,24,04,12,7.90
2018,04,24,04,13,7.90
2018,04,24,04,14,7.90
2018,04,24,04,15,7.90
2018,04,24,04,16,7.90
2018,04,24,04,17,8.00
2018,04,24,04,18,7.90
2018,04,24,04,19,7.90
2018,04,24,04,20,7.90
2018,04,24,04,21,7.90
2018,04,24,04,22,7.90
2018,04,24,04,23,7.90
2018,04,24,04,24,7.90
2018,04,24,04,25,7.90
2018,04,24,04,26,7.90
2018,04,24,04,27,7.90
2018,04,24,04,28,7.90
2018,04,24,04,29,7.80
2018,04,24,04,30,7.80
2018,04,24,04,31,7.80
2018,04,24,04,32,7.80
2018,04,24,04,33,7.80
2018,04,24,04,34,7.80
2018,04,24,04,35,7.90
2018,04,24,04,36,7.90
2018,04,24,04,37,7.90
2018,04,24,04,38,7.90
2018,04,24,04,39,7.90
2018,04,24,04,40,7.90
2018,04,24,04,41,7.80
2018,04,24,04,42,7.90
2018,04,24,04,43,7.90
2018,04,24,04,44,7.90
2018,04,24,04,45,8.00
2018,04,24,04,46,8.00
2018,04,24,04,47,8.10
2018,04,24,04,48,8.20
2018,04,24,04,49,8.20
2018,04,24,04,50,8.30
2018,04,24,04,51,8.40
2018,04,24,04,52,8.40
2018,04,24,04,53,8.50
2018,04,24,04,54,8.60
2018,04,24,04,55,8.60
2018,04,24,04,56,8.70
2018,04,24,04,57,8.80
2018,04,24,04,58,8.80
2018,04,24,04,59,8.90
2018,04,24,05,00,8.90
2018,04,24,05,01,9.00
2018,04,24,05,02,9.00
2018,04,24,05,03,9.10
2018,04,24,05,04,9.10
2018,04,24,05,05,9.20
2018,04,24,05,06,9.20
2018,04,24,05,07,9.20
2018,04,24,05,08,9.30
2018,04,24,05,09,9.30
2018,04,24,05,10,9.30
2018,04,24,05,11,9.20
2018,04,24,05,12,9.20
2018,04,24,05,13,9.20
2018,04,24,05,14,9.20
2018,04,24,05,15,9.10
2018,04,24,05,16,9.10
2018,04,24,05,17,9.10
2018,04,24,05,18,9.10
2018,04,24,05,19,9.10
2018,04,24,05,20,9.20
2018,04,24,05,21,9.20
2018,04,24,05,22,9.10
2018,04,24,05,23,9.10
2018,04,24,05,24,9.10
2018,04,24,05,25,9.00
2018,04,24,05,26,9.00
2018,04,24,05,27,9.10
2018,04,24,05,28,9.10
2018,04,24,05,29,9.10
2018,04,24,05,30,9.20
2018,04,24,05,31,9.20
2018,04,24,05,32,9.30
2018,04,24,05,33,9.40
2018,04,24,05,34,9.40
2018,04,24,05,35,9.40
2018,04,24,05,36,9.50
2018,04,24,05,37,9.50
2018,04,24,05,38,9.40
2018,04,24,05,39,9.40
2018,04,24,05,40,9.40
2018,04,24,05,41,9.30
2018,04,24,05,42,9.30
2018,04,24,05,43,9.30
2018,04,24,05,44,9.20
2018,04,24,05,45,9.20
2018,04,24,05,46,9.10
2018,04,24,05,47,9.00
2018,04,24,05,48,9.00
2018,04,24,05,49,8.90
2018,04,24,05,50,8.80
2018,04,24,05,51,8.80
2018,04,24,05,52,8.70
2018,04,24,05,53,8.60
2018,04,24,05,54,8.60
2018,04,24,05,55,8.60
2018,04,24,05,56,8.70
2018,04,24,05,57,8.70
2018,04,24,05,58,8.80
2018,04,24,05,59,8.90
2018,04,24,06,00,8.90
2018,04,24,06,01,9.00
2018,04,24,06,02,9.00
2018,04,24,06,03,9.10
2018,04,24,06,04,9.10
2018,04,24,06,05,9.10
2018,04,24,06,06,9.10
2018,04,24,06,07,9.10
2018,04,24,06,08,9.10
2018,04,24,06,09,9.10
2018,04,24,06,10,9.10
2018,04,24,06,11,9.10
2018,04,24,06,12,9.00
2018,04,24,06,13,9.00
2018,04,24,06,14,9.00
2018,04,24,06,15,9.00
2018,04,24,06,16,9.00
2018,04,24,06,17,9.00
2018,04,24,06,18,8.90
2018,04,24,06,19,8.90
2018,04,24,06,20,8.90
2018,04,24,06,21,8.90
2018,04,24,06,22,8.90
2018,04,24,06,23,8.90
2018,04,24,06,24,8.90
2018,04,24,06,25,8.90
2018,04,24,06,26,8.90
2018,04,24,06,27,8.90
2018,04,24,06,28,8.90
2018,04,24,06,29,8.90
2018,04,24,06,30,8.90
2018,04,24,06,31,8.90
2018,04,24,06,32,8.90
2018,04,24,06,33,8.90
2018,04,24,06,34,8.90
2018,04,24,06,35,8.90
2018,04,24,06,36,8.90
2018,04,24,06,37,8.90
2018,04,24,06,38,8.90
2018,04,24,06,39,8.90
2018,04,24,06,40,8.90
2018,04,24,06,41,8.90
2018,04,24,06,42,8.90
2018,04,24,06,43,8.90
2018,04,24,06,44,9.00
2018,04,24,06,45,9.00
2018,04,24,06,46,9.00
2018,04,24,06,47,9.00
2018,04,24,06,48,9.10
2018,04,24,06,49,9.10
2018,04,24,06,50,9.10
2018,04,24,06,51,9.20
2018,04,24,06,52,9.20
2018,04,24,06,53,9.30
2018,04,24,06,54,9.40
2018,04,24,06,55,9.50
2018,04,24,06,56,9.60
2018,04,24,06,57,9.60
2018,04,24,06,58,9.70
2018,04,24,06,59,9.80
2018,04,24,07,00,9.80
2018,04,24,07,01,9.90
2018,04,24,07,02,9.90
2018,04,24,07,03,10.00
2018,04,24,07,04,10.00
2018,04,24,07,05,10.10
2018,04,24,07,06,10.10
2018,04,24,07,07,10.20
2018,04,24,07,08,10.30
2018,04,24,07,09,10.30
2018,04,24,07,10,10.30
2018,04,24,07,11,10.30
2018,04,24,07,12,10.40
2018,04,24,07,13,10.40
2018,04,24,07,14,10.40
2018,04,24,07,15,10.40
2018,04,24,07,16,10.50
2018,04,24,07,17,10.60
2018,04,24,07,18,10.60
2018,04,24,07,19,10.70
2018,04,24,07,20,10.80
2018,04,24,07,21,10.80
2018,04,24,07,22,10.90
2018,04,24,07,23,11.00
2018,04,24,07,24,11.00
2018,04,24,07,25,11.10
2018,04,24,07,26,11.10
2018,04,24,07,27,11.20
2018,04,24,07,28,11.20
2018,04,24,07,29,11.20
2018,04,24,07,30,11.30
2018,04,24,07,31,11.30
2018,04,24,07,32,11.30
2018,04,24,07,33,11.40
2018,04,24,07,34,11.40
2018,04,24,07,35,11.50
2018,04,24,07,36,11.50
2018,04,24,07,37,11.50
2018,04,24,07,38,11.50
2018,04,24,07,39,11.50
2018,04,24,07,40,11.60
2018,04,24,07,41,11.60
2018,04,24,07,42,11.60
2018,04,24,07,43,11.60
2018,04,24,07,44,11.70
2018,04,24,07,45,11.70
2018,04,24,07,46,11.70
2018,04,24,07,47,11.70
2018,04,24,07,48,11.70
2018,04,24,07,49,11.80
2018,04,24,07,50,11.80
2018,04,24,07,51,11.80
2018,04,24,07,52,11.80
2018,04,24,07,53,11.80
2018,04,24,07,54,11.80
2018,04,24,07,55,11.80
2018,04,24,07,56,11.90
2018,04,24,07,57,11.90
2018,04,24,07,58,11.90
2018,04,24,07,59,11.90
2018,04,24,08,00,12.00
2018,04,24,08,01,12.00
2018,04,24,08,02,12.00
2018,04,24,08,03,12.00
2018,04,24,08,04,12.10
2018,04,24,08,05,12.10
2018,04,24,08,06,12.10
2018,04,24,08,07,12.20
2018,04,24,08,08,12.20
2018,04,24,08,09,12.20
2018,04,24,08,10,12.20
2018,04,24,08,11,12.30
2018,04,24,08,12,12.30
2018,04,24,08,13,12.30
2018,04,24,08,14,12.30
2018,04,24,08,15,12.30
2018,04,24,08,16,12.40
2018,04,24,08,17,12.40
2018,04,24,08,18,12.50
2018,04,24,08,19,12.50
2018,04,24,08,20,12.60
2018,04,24,08,21,12.60
2018,04,24,08,22,12.70
2018,04,24,08,23,12.70
2018,04,24,08,24,12.80
2018,04,24,08,25,12.80
2018,04,24,08,26,12.80
2018,04,24,08,27,12.90
2018,04,24,08,28,12.90
2018,04,24,08,29,13.00
2018,04,24,08,30,13.00
2018,04,24,08,31,13.10
2018,04,24,08,32,13.10
2018,04,24,08,33,13.10
2018,04,24,08,34,13.10
2018,04,24,08,35,13.20
2018,04,24,08,36,13.20
2018,04,24,08,37,13.30
2018,04,24,08,38,13.30
2018,04,24,08,39,13.40
2018,04,24,08,40,13.50
2018,04,24,08,41,13.50
2018,04,24,08,42,13.50
2018,04,24,08,43,13.60
2018,04,24,08,44,13.60
2018,04,24,08,45,13.70
2018,04,24,08,46,13.70
2018,04,24,08,47,13.70
2018,04,24,08,48,13.80
2018,04,24,08,49,13.70
2018,04,24,08,50,13.70
2018,04,24,08,51,13.70
2018,04,24,08,52,13.70
2018,04,24,08,53,13.70
2018,04,24,08,54,13.70
2018,04,24,08,55,13.70
2018,04,24,08,56,13.70
2018,04,24,08,57,13.70
2018,04,24,08,58,13.70
2018,04,24,08,59,13.80
2018,04,24,09,00,13.80
2018,04,24,09,01,13.80
2018,04,24,09,02,13.90
2018,04,24,09,03,14.00
2018,04,24,09,04,14.00
2018,04,24,09,05,14.00
2018,04,24,09,06,14.00
2018,04,24,09,07,13.90
2018,04,24,09,08,14.00
2018,04,24,09,09,14.00
2018,04,24,09,10,14.10
2018,04,24,09,11,14.10
2018,04,24,09,12,14.20
2018,04,24,09,13,14.20
2018,04,24,09,14,14.30
2018,04,24,09,15,14.40
2018,04,24,09,16,14.40
2018,04,24,09,17,14.40
2018,04,24,09,18,14.40
2018,04,24,09,19,14.30
2018,04,24,09,20,14.30
2018,04,24,09,21,14.30
2018,04,24,09,22,14.30
2018,04,24,09,23,14.30
2018,04,24,09,24,14.30
2018,04,24,09,25,14.30
2018,04,24,09,26,14.20
2018,04,24,09,27,14.20
2018,04,24,09,28,14.20
2018,04,24,09,29,14.20
2018,04,24,09,30,14.20
2018,04,24,09,31,14.20
2018,04,24,09,32,14.20
2018,04,24,09,33,14.20
2018,04,24,09,34,14.20
2018,04,24,09,35,14.20
2018,04,24,09,36,14.20
2018,04,24,09,37,14.20
2018,04,24,09,38,14.30
2018,04,24,09,39,14.30
2018,04,24,09,40,14.30
2018,04,24,09,41,14.30
2018,04,24,09,42,14.30
2018,04,24,09,43,14.40
2018,04,24,09,44,14.40
2018,04,24,09,45,14.40
2018,04,24,09,46,14.30
2018,04,24,09,47,14.30
2018,04,24,09,48,14.40
2018,04,24,09,49,14.30
2018,04,24,09,50,14.30
2018,04,24,09,51,14.30
2018,04,24,09,52,14.30
2018,04,24,09,53,14.30
2018,04,24,09,54,14.30
2018,04,24,09,55,14.20
2018,04,24,09,56,14.10
2018,04,24,09,57,14.10
2018,04,24,09,58,14.10
2018,04,24,09,59,14.10
2018,04,24,10,00,14.10
2018,04,24,10,01,14.10
2018,04,24,10,02,14.10
2018,04,24,10,03,14.20
2018,04,24,10,04,14.20
2018,04,24,10,05,14.20
2018,04,24,10,06,14.20
2018,04,24,10,07,14.20
2018,04,24,10,08,14.30
2018,04,24,10,09,14.40
2018,04,24,10,10,14.40
2018,04,24,10,11,14.40
2018,04,24,10,12,14.40
2018,04,24,10,13,14.40
2018,04,24,10,14,14.50
2018,04,24,10,15,14.50
2018,04,24,10,16,14.60
2018,04,24,10,17,14.70
2018,04,24,10,18,14.70
2018,04,24,10,19,14.80
2018,04,24,10,20,14.80
2018,04,24,10,21,14.90
2018,04,24,10,22,14.90
2018,04,24,10,23,14.80
2018,04,24,10,24,14.80
2018,04,24,10,25,14.80
2018,04,24,10,26,14.70
2018,04,24,10,27,14.70
2018,04,24,10,28,14.70
2018,04,24,10,29,14.70
2018,04,24,10,30,14.70
2018,04,24,10,31,14.70
2018,04,24,10,32,14.80
2018,04,24,10,33,14.80
2018,04,24,10,34,14.90
2018,04,24,10,35,14.90
2018,04,24,10,36,14.90
2018,04,24,10,37,14.90
2018,04,24,10,38,15.00
2018,04,24,10,39,15.10
2018,04,24,10,40,15.20
2018,04,24,10,41,15.20
2018,04,24,10,42,15.10
2018,04,24,10,43,15.10
2018,04,24,10,44,15.10
2018,04,24,10,45,15.10
2018,04,24,10,46,15.10
2018,04,24,10,47,15.10
2018,04,24,10,48,15.10
2018,04,24,10,49,15.10
2018,04,24,10,50,15.10
2018,04,24,10,51,15.10
2018,04,24,10,52,15.10
2018,04,24,10,53,15.10
2018,04,24,10,54,15.00
2018,04,24,10,55,15.00
2018,04,24,10,56,15.00
2018,04,24,10,57,15.10
2018,04,24,10,58,15.10
2018,04,24,10,59,15.20
2018,04,24,11,00,15.20
2018,04,24,11,01,15.20
2018,04,24,11,02,15.20
2018,04,24,11,03,15.20
2018,04,24,11,04,15.20
2018,04,24,11,05,15.20
2018,04,24,11,06,15.30
2018,04,24,11,07,15.30
2018,04,24,11,08,15.30
2018,04,24,11,09,15.30
2018,04,24,11,10,15.30
2018,04,24,11,11,15.30
2018,04,24,11,12,15.30
2018,04,24,11,13,15.30
2018,04,24,11,14,15.30
2018,04,24,11,15,15.30
2018,04,24,11,16,15.30
2018,04,24,11,17,15.30
2018,04,24,11,18,15.30
2018,04,24,11,19,15.40
2018,04,24,11,20,15.50
2018,04,24,11,21,15.60
2018,04,24,11,22,15.60
2018,04,24,11,23,15.70
2018,04,24,11,24,15.80
2018,04,24,11,25,15.80
2018,04,24,11,26,15.80
2018,04,24,11,27,15.70
2018,04,24,11,28,15.70
2018,04,24,11,29,15.80
2018,04,24,11,30,15.80
2018,04,24,11,31,15.90
2018,04,24,11,32,15.90
2018,04,24,11,33,16.00
2018,04,24,11,34,16.00
2018,04,24,11,35,16.00
2018,04,24,11,36,16.00
2018,04,24,11,37,16.00
2018,04,24,11,38,16.10
2018,04,24,11,39,16.00
2018,04,24,11,40,16.00
2018,04,24,11,41,16.00
2018,04,24,11,42,16.00
2018,04,24,11,43,16.00
2018,04,24,11,44,16.00
2018,04,24,11,45,15.90
2018,04,24,11,46,15.90
2018,04,24,11,47,15.90
2018,04,24,11,48,15.90
2018,04,24,11,49,15.90
2018,04,24,11,50,16.00
2018,04,24,11,51,16.00
2018,04,24,11,52,16.00
2018,04,24,11,53,16.10
2018,04,24,11,54,16.00
2018,04,24,11,55,16.00
2018,04,24,11,56,16.00
2018,04,24,11,57,16.10
2018,04,24,11,58,16.10
2018,04,24,11,59,16.20
2018,04,24,12,00,16.20
2018,04,24,12,01,16.20
2018,04,24,12,02,16.30
2018,04,24,12,03,16.30
2018,04,24,12,04,16.30
2018,04,24,12,05,16.30
2018,04,24,12,06,16.40
2018,04,24,12,07,16.50
2018,04,24,12,08,16.50
2018,04,24,12,09,16.50
2018,04,24,12,10,16.50
2018,04,24,12,11,16.50
2018,04,24,12,12,16.60
2018,04,24,12,13,16.60
2018,04,24,12,14,16.50
2018,04,24,12,15,16.40
2018,04,24,12,16,16.40
2018,04,24,12,17,16.40
2018,04,24,12,18,16.40
2018,04,24,12,19,16.40
2018,04,24,12,20,16.40
2018,04,24,12,21,16.30
2018,04,24,12,22,16.20
2018,04,24,12,23,16.10
2018,04,24,12,24,16.10
2018,04,24,12,25,16.10
2018,04,24,12,26,16.10
2018,04,24,12,27,16.00
2018,04,24,12,28,16.00
2018,04,24,12,29,16.10
2018,04,24,12,30,16.10
2018,04,24,12,31,16.20
2018,04,24,12,32,16.20
2018,04,24,12,33,16.20
2018,04,24,12,34,16.20
2018,04,24,12,35,16.30
2018,04,24,12,36,16.30
2018,04,24,12,37,16.40
2018,04,24,12,38,16.50
2018,04,24,12,39,16.50
2018,04,24,12,40,16.60
2018,04,24,12,41,16.60
2018,04,24,12,42,16.60
2018,04,24,12,43,16.60
2018,04,24,12,44,16.70
2018,04,24,12,45,16.60
2018,04,24,12,46,16.60
2018,04,24,12,47,16.70
2018,04,24,12,48,16.70
2018,04,24,12,49,16.70
2018,04,24,12,50,16.70
2018,04,24,12,51,16.70
2018,04,24,12,52,16.90
2018,04,24,12,53,16.90
2018,04,24,12,54,16.90
2018,04,24,12,55,17.00
2018,04,24,12,56,16.90
2018,04,24,12,57,16.90
2018,04,24,12,58,16.80
2018,04,24,12,59,16.80
2018,04,24,13,00,16.80
2018,04,24,13,01,16.80
2018,04,24,13,02,16.90
2018,04,24,13,03,16.90
2018,04,24,13,04,16.90
2018,04,24,13,05,16.90
2018,04,24,13,06,17.00
2018,04,24,13,07,17.00
2018,04,24,13,08,17.10
2018,04,24,13,09,17.10
2018,04,24,13,10,17.10
2018,04,24,13,11,17.10
2018,04,24,13,12,17.10
2018,04,24,13,13,17.10
2018,04,24,13,14,17.10
2018,04,24,13,15,17.10
2018,04,24,13,16,17.20
2018,04,24,13,17,17.20
2018,04,24,13,18,17.30
2018,04,24,13,19,17.40
2018,04,24,13,20,17.30
2018,04,24,13,21,17.30
2018,04,24,13,22,17.20
2018,04,24,13,23,17.00
2018,04,24,13,24,16.80
2018,04,24,13,25,16.70
2018,04,24,13,26,16.70
2018,04,24,13,27,16.60
2018,04,24,13,28,16.50
2018,04,24,13,29,16.50
2018,04,24,13,30,16.50
2018,04,24,13,31,16.40
2018,04,24,13,32,16.40
2018,04,24,13,33,16.50
2018,04,24,13,34,16.50
2018,04,24,13,35,16.60
2018,04,24,13,36,16.60
2018,04,24,13,37,16.80
2018,04,24,13,38,16.90
2018,04,24,13,39,17.00
2018,04,24,13,40,17.10
2018,04,24,13,41,17.10
2018,04,24,13,42,17.20
2018,04,24,13,43,17.20
2018,04,24,13,44,17.20
2018,04,24,13,45,17.20
2018,04,24,13,46,17.20
2018,04,24,13,47,17.20
2018,04,24,13,48,17.20
2018,04,24,13,49,17.20
2018,04,24,13,50,17.30
2018,04,24,13,51,17.30
2018,04,24,13,52,17.30
2018,04,24,13,53,17.30
2018,04,24,13,54,17.30
2018,04,24,13,55,17.30
2018,04,24,13,56,17.30
2018,04,24,13,57,17.30
2018,04,24,13,58,17.30
2018,04,24,13,59,17.30
2018,04,24,14,00,17.30
2018,04,24,14,01,17.30
2018,04,24,14,02,17.30
2018,04,24,14,03,17.20
2018,04,24,14,04,17.20
2018,04,24,14,05,17.20
2018,04,24,14,06,17.30
2018,04,24,14,07,17.30
2018,04,24,14,08,17.40
2018,04,24,14,09,17.40
2018,04,24,14,10,17.50
2018,04,24,14,11,17.60
2018,04,24,14,12,17.70
2018,04,24,14,13,17.70
2018,04,24,14,14,17.70
2018,04,24,14,15,17.80
2018,04,24,14,16,17.90
2018,04,24,14,17,17.90
2018,04,24,14,18,17.80
2018,04,24,14,19,17.90
2018,04,24,14,20,17.90
2018,04,24,14,21,17.90
2018,04,24,14,22,17.90
2018,04,24,14,23,17.80
2018,04,24,14,24,17.80
2018,04,24,14,25,17.80
2018,04,24,14,26,17.70
2018,04,24,14,27,17.70
2018,04,24,14,28,17.80
2018,04,24,14,29,17.80
2018,04,24,14,30,17.80
2018,04,24,14,31,17.80
2018,04,24,14,32,17.80
2018,04,24,14,33,18.00
2018,04,24,14,34,18.00
2018,04,24,14,35,18.00
2018,04,24,14,36,18.10
2018,04,24,14,37,18.10
2018,04,24,14,38,18.10
2018,04,24,14,39,18.00
2018,04,24,14,40,18.00
2018,04,24,14,41,17.90
2018,04,24,14,42,17.90
2018,04,24,14,43,18.00
2018,04,24,14,44,18.10
2018,04,24,14,45,18.10
2018,04,24,14,46,18.20
2018,04,24,14,47,18.20
2018,04,24,14,48,18.20
2018,04,24,14,49,18.30
2018,04,24,14,50,18.30
2018,04,24,14,51,18.30
2018,04,24,14,52,18.30
2018,04,24,14,53,18.30
2018,04,24,14,54,18.30
2018,04,24,14,55,18.40
2018,04,24,14,56,18.40
2018,04,24,14,57,18.40
2018,04,24,14,58,18.40
2018,04,24,14,59,18.40
2018,04,24,15,00,18.40
2018,04,24,15,01,18.40
2018,04,24,15,02,18.40
2018,04,24,15,03,18.30
2018,04,24,15,04,18.30
2018,04,24,15,05,18.30
2018,04,24,15,06,18.30
2018,04,24,15,07,18.20
2018,04,24,15,08,18.20
2018,04,24,15,09,18.30
2018,04,24,15,10,18.30
2018,04,24,15,11,18.30
2018,04,24,15,12,18.20
2018,04,24,15,13,18.20
2018,04,24,15,14,18.20
2018,04,24,15,15,18.20
2018,04,24,15,16,18.20
2018,04,24,15,17,18.20
2018,04,24,15,18,18.20
2018,04,24,15,19,18.30
2018,04,24,15,20,18.30
2018,04,24,15,21,18.40
2018,04,24,15,22,18.40
2018,04,24,15,23,18.40
2018,04,24,15,24,18.40
2018,04,24,15,25,18.50
2018,04,24,15,26,18.50
2018,04,24,15,27,18.50
2018,04,24,15,28,18.50
2018,04,24,15,29,18.50
2018,04,24,15,30,18.50
2018,04,24,15,31,18.50
2018,04,24,15,32,18.50
2018,04,24,15,33,18.60
2018,04,24,15,34,18.60
2018,04,24,15,35,18.70
2018,04,24,15,36,18.70
2018,04,24,15,37,18.70
2018,04,24,15,38,18.60
2018,04,24,15,39,18.60
2018,04,24,15,40,18.50
2018,04,24,15,41,18.40
2018,04,24,15,42,18.40
2018,04,24,15,43,18.30
2018,04,24,15,44,18.40
2018,04,24,15,45,18.40
2018,04,24,15,46,18.40
2018,04,24,15,47,18.50
2018,04,24,15,48,18.50
2018,04,24,15,49,18.50
2018,04,24,15,50,18.50
2018,04,24,15,51,18.50
2018,04,24,15,52,18.50
2018,04,24,15,53,18.50
2018,04,24,15,54,18.50
2018,04,24,15,55,18.50
2018,04,24,15,56,18.60
2018,04,24,15,57,18.60
2018,04,24,15,58,18.60
2018,04,24,15,59,18.60
2018,04,24,16,00,18.50
2018,04,24,16,01,18.50
2018,04,24,16,02,18.40
2018,04,24,16,03,18.50
2018,04,24,16,04,18.40
2018,04,24,16,05,18.40
2018,04,24,16,06,18.50
2018,04,24,16,07,18.50
2018,04,24,16,08,18.50
2018,04,24,16,09,18.50
2018,04,24,16,10,18.50
2018,04,24,16,11,18.40
2018,04,24,16,12,18.40
2018,04,24,16,13,18.40
2018,04,24,16,14,18.40
2018,04,24,16,15,18.40
2018,04,24,16,16,18.40
2018,04,24,16,17,18.40
2018,04,24,16,18,18.40
2018,04,24,16,19,18.50
2018,04,24,16,20,18.50
2018,04,24,16,21,18.50
2018,04,24,16,22,18.50
2018,04,24,16,23,18.50
2018,04,24,16,24,18.60
2018,04,24,16,25,18.60
2018,04,24,16,26,18.60
2018,04,24,16,27,18.60
2018,04,24,16,28,18.50
2018,04,24,16,29,18.50
2018,04,24,16,30,18.50
2018,04,24,16,31,18.50
2018,04,24,16,32,18.50
2018,04,24,16,33,18.50
2018,04,24,16,34,18.50
2018,04,24,16,35,18.50
2018,04,24,16,36,18.60
2018,04,24,16,37,18.60
2018,04,24,16,38,18.60
2018,04,24,16,39,18.60
2018,04,24,16,40,18.70
2018,04,24,16,41,18.70
2018,04,24,16,42,18.70
2018,04,24,16,43,18.70
2018,04,24,16,44,18.70
2018,04,24,16,45,18.70
2018,04,24,16,46,18.70
2018,04,24,16,47,18.70
2018,04,24,16,48,18.70
2018,04,24,16,49,18.70
2018,04,24,16,50,18.70
2018,04,24,16,51,18.80
2018,04,24,16,52,18.90
2018,04,24,16,53,18.90
2018,04,24,16,54,18.90
2018,04,24,16,55,18.90
2018,04,24,16,56,19.00
2018,04,24,16,57,19.00
2018,04,24,16,58,19.10
2018,04,24,16,59,19.10
2018,04,24,17,00,19.10
2018,04,24,17,01,19.10
2018,04,24,17,02,19.10
2018,04,24,17,03,19.10
2018,04,24,17,04,19.20
2018,04,24,17,05,19.10
2018,04,24,17,06,19.10
2018,04,24,17,07,19.10
2018,04,24,17,08,19.00
2018,04,24,17,09,18.90
2018,04,24,17,10,18.90
2018,04,24,17,11,18.80
2018,04,24,17,12,18.80
2018,04,24,17,13,18.90
2018,04,24,17,14,18.90
2018,04,24,17,15,18.90
2018,04,24,17,16,18.90
2018,04,24,17,17,18.90
2018,04,24,17,18,19.00
2018,04,24,17,19,19.00
2018,04,24,17,20,19.00
2018,04,24,17,21,19.00
2018,04,24,17,22,19.00
2018,04,24,17,23,18.90
2018,04,24,17,24,18.80
2018,04,24,17,25,18.80
2018,04,24,17,26,18.70
2018,04,24,17,27,18.70
2018,04,24,17,28,18.70
2018,04,24,17,29,18.70
2018,04,24,17,30,18.70
2018,04,24,17,31,18.70
2018,04,24,17,32,18.70
2018,04,24,17,33,18.60
2018,04,24,17,34,18.60
2018,04,24,17,35,18.60
2018,04,24,17,36,18.60
2018,04,24,17,37,18.60